"TOA5","AWS1","CR1000","7964","CR1000.Std.14","CPU:AWS1_114.CR1","64363","TBL110"
"TIMESTAMP","RECORD","Wind_spd_WVc(1)","Wind_spd_WVc(2)","Air_Temp_Avg","Humidity_Avg","SW_upper_Wm2_Avg","Rain_Tot","Press_Avg","Issui_Tot","Depth_cm","SR50A_Raw","Quality","Ground_Temp_Avg(1)","Ground_Temp_Avg(2)","SW_lower_Wm2_Avg","Albedo_Avg","SWC_per(1)","SWC_per(2)","Period(1)","Period(2)"
"TS","RN","","","","","","","","","","","","","","","","","","",""
"","","WVc","WVc","Avg","Avg","Avg","Tot","Avg","Tot","Smp","Smp","Smp","Avg","Avg","Avg","Avg","Smp","Smp","Smp","Smp"
"2017-05-08 00:00:00",287053,0.419,161.6,4.01,64.5,0,0,863.8492,0,-6.5,3.218,180,9.13,8.33,0.1213481,0,51.71,60.03,33.72,35.69
"2017-05-08 00:10:00",287054,0.398,155.6,4.12,64.51,0,0,863.9686,0,-5.339,3.211,189,9.07,8.33,0.1403087,0,51.71,59.97,33.72,35.67
"2017-05-08 00:20:00",287055,0.383,154,4.148,63.59,0,0,863.7703,0,-5.491,3.21,190,9.01,8.31,0.1441009,0,51.71,59.97,33.72,35.67
"2017-05-08 00:30:00",287056,0.349,143.1,3.922,65.56,0,0,863.6976,0,-4.937,3.206,196,9,8.31,0.01137639,0,51.71,59.97,33.72,35.67
"2017-05-08 00:40:00",287057,0.495,147.7,4.419,61.12,0,0,863.5803,0,-5.893,3.217,196,8.93,8.32,0.4436792,0,51.71,59.97,33.72,35.67
"2017-05-08 00:50:00",287058,0.512,144.8,4.115,61.04,0,0,863.5016,0,-5.516,3.211,181,8.96,8.35,0.1441009,0,51.71,59.97,33.72,35.67
"2017-05-08 01:00:00",287059,0.469,152.5,3.913,60.22,0,0,863.5094,0,-5.693,3.213,188,8.88,8.38,0.00379213,0,51.71,59.97,33.72,35.67
"2017-05-08 01:10:00",287060,0.417,154.3,3.833,59.51,0,0,863.3128,0,-5.012,3.207,190,8.88,8.37,0.01896065,0,51.66,59.97,33.7,35.67
"2017-05-08 01:20:00",287061,0.402,150.6,4.415,53.16,0,0,863.2794,0,-5.491,3.209,184,8.82,8.32,0.4929769,0,51.71,59.97,33.72,35.67
"2017-05-08 01:30:00",287062,0.347,159.8,4.57,51.85,0,0,863.1954,0,-5.138,3.205,186,8.78,8.3,0.2502806,0,51.71,59.97,33.72,35.67
"2017-05-08 01:40:00",287063,0.439,163.7,4.116,54.97,0,0,863.0377,0,-4.937,3.204,185,8.79,8.3,0.01516852,0,51.71,59.97,33.72,35.67
"2017-05-08 01:50:00",287064,0.392,177.1,4.837,49.86,0,0,863.1878,0,-5.289,3.203,178,8.71,8.3,0.5726117,0,51.71,60.03,33.72,35.69
"2017-05-08 02:00:00",287065,0.31,167.1,5.137,48.95,0,0,863.1583,0,-5.314,3.206,186,8.7,8.3,0.3678366,0,51.71,59.97,33.72,35.67
"2017-05-08 02:10:00",287066,0.542,176.7,5.371,47.07,0,0,863.0275,0,-5.286,3.198,184,8.65,8.3,0.5839881,0,51.71,59.97,33.72,35.67
"2017-05-08 02:20:00",287067,0.38,161.3,5.394,49.06,0,0,863.0168,0,-5.541,3.206,193,8.59,8.3,0.1630616,0,51.71,59.97,33.72,35.67
"2017-05-08 02:30:00",287068,0.544,162,5.402,50.52,0,0,863.0114,0,-5.893,3.205,192,8.64,8.3,0.2161514,0,51.71,59.97,33.72,35.67
"2017-05-08 02:40:00",287069,0.388,164.7,6.073,49.13,0,0,862.9739,0,-5.185,3.197,180,8.63,8.3,0.4247186,0,51.71,59.97,33.72,35.67
"2017-05-08 02:50:00",287070,0.454,168.9,5.756,51.64,0,0,862.9736,0,-5.232,3.198,185,8.52,8.3,0,0,51.71,59.91,33.72,35.66
"2017-05-08 03:00:00",287071,0.443,168,5.745,53.08,0,0,862.9684,0,-4.979,3.198,180,8.53,8.26,0.007583955,0,51.71,59.91,33.72,35.66
"2017-05-08 03:10:00",287072,0.386,155,5.807,54.73,0,0,863.1539,0,-5.271,3.197,184,8.46,8.23,0.1251318,0,51.71,59.91,33.72,35.66
"2017-05-08 03:20:00",287073,0.364,160.1,5.973,55.74,0,0,863.2281,0,-4.963,3.196,190,8.38,8.21,0.01895886,0,51.71,59.97,33.72,35.67
"2017-05-08 03:30:00",287074,0.404,154.9,5.981,56.98,0,0,863.4069,0,-5.06,3.196,194,8.42,8.22,0.05687474,0,51.71,59.91,33.72,35.66
"2017-05-08 03:40:00",287075,0.473,149.3,5.715,59.14,0,0,863.3499,0,-4.947,3.195,179,8.32,8.23,0.007582496,0,51.71,59.97,33.72,35.67
"2017-05-08 03:50:00",287076,0.519,140.9,5.987,58.7,0,0,863.2656,0,-4.842,3.194,194,8.24,8.23,0.05307724,0,51.71,59.97,33.72,35.67
"2017-05-08 04:00:00",287077,0.524,157.5,5.809,60.13,0,0,863.2951,0,-4.943,3.196,192,8.24,8.23,0,0,51.71,59.91,33.72,35.66
"2017-05-08 04:10:00",287078,0.396,157.9,6.059,59.76,0,0,863.4172,0,-5.399,3.199,181,8.23,8.23,0.1137358,0,51.71,59.91,33.72,35.66
"2017-05-08 04:20:00",287079,0.506,160.8,5.674,62.13,0,0,863.4531,0,-5.045,3.197,190,8.16,8.23,0.007582302,0,51.71,59.91,33.72,35.66
"2017-05-08 04:30:00",287080,0.636,172.8,5.867,62.14,0,0,863.4531,0,-4.734,3.192,185,8.22,8.2,0.1478515,0,51.77,59.91,33.73,35.66
"2017-05-08 04:40:00",287081,0.55,167.8,6.109,61.3,0,0,863.4531,0,-5.489,3.2,184,8.19,8.19,0.2009211,0,51.71,59.91,33.72,35.66
"2017-05-08 04:50:00",287082,0.417,176.8,6.043,61.96,0,0,863.6259,0,-5.031,3.194,176,8.06,8.18,0.1516345,0,51.71,59.91,33.72,35.66
"2017-05-08 05:00:00",287083,0.56,164.5,6.006,62.56,1.635561,0,863.569,0,-5.385,3.199,188,8.09,8.09,0.6330716,0.409,51.77,59.91,33.73,35.66
"2017-05-08 05:10:00",287084,0.557,161.6,5.677,64.79,7.171296,0,863.4678,0,-5.006,3.196,184,8.05,8.05,1.269932,0.166,51.71,59.91,33.72,35.66
"2017-05-08 05:20:00",287085,0.329,184.3,6.16,63,14.78686,0,863.7165,0,-4.979,3.193,186,7.951,8.05,2.918946,0.197,51.77,59.91,33.73,35.66
"2017-05-08 05:30:00",287086,0.239,183.3,6.374,62.06,22.0643,0,863.9588,0,-5.283,3.197,188,8.01,8.07,3.821166,0.174,51.71,59.91,33.72,35.66
"2017-05-08 05:40:00",287087,0.501,176.7,5.964,64.91,29.27098,0,863.9588,0,-5.13,3.195,189,8.03,8.11,4.624823,0.157,51.71,59.91,33.72,35.66
"2017-05-08 05:50:00",287088,0.431,162,6.317,64.14,40.8968,0,863.9588,0,-5.08,3.194,193,7.951,8.12,7.384553,0.18,51.71,59.91,33.72,35.66
"2017-05-08 06:00:00",287089,0.721,141,6.477,64.37,81.62849,0,863.9567,0,-4.772,3.188,189,7.871,8.11,14.79943,0.187,51.71,59.91,33.72,35.66
"2017-05-08 06:10:00",287090,0.72,129.1,7.174,62,91.64235,0,863.9588,0,-4.255,3.177,190,7.863,8.07,20.24687,0.241,51.71,59.91,33.72,35.66
"2017-05-08 06:20:00",287091,0.464,112.7,8.52,55.97,110.4473,0,864.1125,0,-4.496,3.174,188,7.863,8.04,23.12033,0.251,51.71,59.91,33.72,35.66
"2017-05-08 06:30:00",287092,0.556,130.9,8.95,55.03,143.131,0,864.0641,0,-4.851,3.177,189,7.863,8.04,24.02254,0.197,51.71,59.91,33.72,35.66
"2017-05-08 06:40:00",287093,0.741,141.9,9.05,53.63,152.0911,0,864.0166,0,-4.895,3.175,180,7.863,8.04,27.09691,0.205,51.71,59.91,33.72,35.66
"2017-05-08 06:50:00",287094,0.75,145.9,9.61,49.99,124.3181,0,864.1692,0,-4.736,3.171,189,7.854,8.04,29.20462,0.245,51.77,59.91,33.73,35.66
"2017-05-08 07:00:00",287095,0.95,146,9.95,47.38,130.7698,0,864.1305,0,-6.153,3.183,185,7.829,8.04,29.45856,0.24,51.71,59.91,33.72,35.66
"2017-05-08 07:10:00",287096,0.843,139.2,10.23,47.54,81.70766,0,864.0812,0,-4.518,3.165,197,7.796,8.01,29.79338,0.366,51.77,59.91,33.73,35.66
"2017-05-08 07:20:00",287097,1.08,142.9,10.38,46.34,121.6595,0,864.122,0,-4.067,3.16,197,7.68,7.975,27.76533,0.248,51.71,59.85,33.72,35.64
"2017-05-08 07:30:00",287098,1.054,125.8,10.43,47.54,99.42065,0,864.1339,0,-3.754,3.157,205,7.613,7.955,29.18823,0.297,51.71,59.91,33.72,35.66
"2017-05-08 07:40:00",287099,0.62,90.6,10.88,48.15,121.5613,0,864.3253,0,-4.131,3.16,200,7.603,7.948,31.62793,0.278,51.71,59.91,33.72,35.66
"2017-05-08 07:50:00",287100,0.692,49.78,10.79,49.35,536.2974,0,864.3738,0,-3.951,3.158,200,7.603,7.946,42.34072,0.079,51.71,59.91,33.72,35.66
"2017-05-08 08:00:00",287101,0.813,111.7,11.23,49.02,599.204,0,864.2894,0,-4.295,3.158,190,7.6,7.945,74.43428,0.124,51.71,59.85,33.72,35.64
"2017-05-08 08:10:00",287102,0.799,118.1,11.67,48.86,633.4482,0,864.1293,0,-4.508,3.156,203,7.634,7.906,96.42875,0.152,51.77,59.85,33.73,35.64
"2017-05-08 08:20:00",287103,0.946,126.6,12.05,47.75,670.7937,0,864.1189,0,-4.662,3.158,185,7.711,7.935,108.3734,0.162,51.71,59.85,33.72,35.64
"2017-05-08 08:30:00",287104,1.13,77.67,12.19,47.06,704.9691,0,864.0778,0,-4.658,3.156,202,7.69,7.907,113.9746,0.162,51.77,59.85,33.73,35.64
"2017-05-08 08:40:00",287105,0.841,77.72,12.4,45.78,738.6084,0,864.0381,0,-3.525,3.142,229,7.632,7.846,116.0266,0.157,51.77,59.85,33.73,35.64
"2017-05-08 08:50:00",287106,0.88,37.47,12.7,43.31,765.0059,0,864.0332,0,-4.407,3.155,191,7.594,7.807,114.816,0.15,51.77,59.85,33.73,35.64
"2017-05-08 09:00:00",287107,0.555,79.85,12.98,43.66,803.3167,0,863.9551,0,-4.578,3.15,220,7.629,7.747,119.0514,0.148,51.66,59.85,33.7,35.64
"2017-05-08 09:10:00",287108,0.823,29.52,13.47,41.03,841.8787,0,863.9462,0,-2.992,3.135,261,7.64,7.726,124.9371,0.148,51.71,59.85,33.72,35.64
"2017-05-08 09:20:00",287109,0.51,224,13.7,40.77,872.4706,0,863.9102,0,-5.386,3.151,194,7.63,7.725,131.6192,0.151,51.77,59.85,33.73,35.64
"2017-05-08 09:30:00",287110,0.717,330.2,13.66,38.55,908.2155,0,863.9692,0,-4.005,3.143,221,7.607,7.719,136.7976,0.151,51.77,59.85,33.73,35.64
"2017-05-08 09:40:00",287111,0.5,315.3,13.64,36.64,939.2264,0,864.0261,0,-3.634,3.137,202,7.635,7.723,142.7754,0.152,51.77,59.85,33.73,35.64
"2017-05-08 09:50:00",287112,0.759,127.5,14.41,35.59,953.08,0,863.8745,0,-5.778,3.156,186,7.646,7.715,149.8026,0.157,51.71,59.85,33.72,35.64
"2017-05-08 10:00:00",287113,0.518,354.3,14.08,34.04,978.6369,0,863.7924,0,-5.669,3.154,184,7.662,7.678,154.9507,0.158,51.71,59.85,33.72,35.64
"2017-05-08 10:10:00",287114,0.605,11.89,14.15,33.82,1003.302,0,863.7966,0,-5.057,3.149,192,7.691,7.643,160.4228,0.16,51.71,59.85,33.72,35.64
"2017-05-08 10:20:00",287115,0.722,340.2,14.57,33.83,1024.334,0,863.7924,0,-4.861,3.144,198,7.648,7.637,167.3673,0.163,51.71,59.85,33.72,35.64
"2017-05-08 10:30:00",287116,0.839,339.1,15.24,33.09,1045.265,0,863.7776,0,-5.165,3.146,194,7.647,7.599,174.3195,0.167,51.66,59.85,33.7,35.64
"2017-05-08 10:40:00",287117,0.711,285.2,15.51,30.75,1075.19,0,863.7039,0,-5.421,3.144,171,7.765,7.559,182.1919,0.169,51.71,59.79,33.72,35.63
"2017-05-08 10:50:00",287118,0.507,20.48,16.2,27.85,1079.776,0,863.5944,0,-4.798,3.133,188,7.74,7.554,184.1695,0.171,51.71,59.79,33.72,35.63
"2017-05-08 11:00:00",287119,0.502,287.2,16.72,28.23,1082.946,0,863.5649,0,-4.417,3.13,186,7.795,7.554,186.1015,0.172,51.71,59.79,33.72,35.63
"2017-05-08 11:10:00",287120,0.788,281.4,16.22,27.65,1090.8,0,863.5228,0,-4.853,3.138,176,7.85,7.554,189.6662,0.174,51.66,59.79,33.7,35.63
"2017-05-08 11:20:00",287121,0.783,297.3,16.01,28.33,1101.915,0,863.5207,0,-3.872,3.128,181,7.941,7.563,193.9091,0.176,51.71,59.85,33.72,35.64
"2017-05-08 11:30:00",287122,0.833,281.7,16.47,27.69,1108.469,0,863.426,0,-3.448,3.122,177,8.04,7.578,197.3905,0.178,51.71,59.79,33.72,35.63
"2017-05-08 11:40:00",287123,0.719,256.1,16.86,28.28,1112.248,0,863.5039,0,-5.75,3.142,189,8.08,7.602,200.7544,0.18,51.66,59.85,33.7,35.64
"2017-05-08 11:50:00",287124,0.722,271,17.07,27.45,1098.253,0,863.3355,0,-4.877,3.134,188,8.19,7.562,201.3795,0.183,51.66,59.79,33.7,35.63
"2017-05-08 12:00:00",287125,0.983,272.2,16.52,27.16,1089.17,0,863.2913,0,-4.726,3.133,188,8.27,7.566,199.94,0.184,51.66,59.79,33.7,35.63
"2017-05-08 12:10:00",287126,1.179,265.2,16.61,25.84,1059.6,0,863.2744,0,-5.289,3.138,197,8.36,7.51,197.2352,0.186,51.66,59.79,33.7,35.63
"2017-05-08 12:20:00",287127,0.94,300.5,17.1,25.43,1063.211,0,863.2723,0,-5.192,3.138,203,8.45,7.496,198.4853,0.187,51.66,59.79,33.7,35.63
"2017-05-08 12:30:00",287128,0.806,317.4,17.07,26.25,1064.41,0,863.2091,0,-5.117,3.13,180,8.53,7.491,198.1292,0.186,51.66,59.79,33.7,35.63
"2017-05-08 12:40:00",287129,0.669,353.2,18.03,25.09,1056.226,0,863.1102,0,-4.101,3.119,189,8.66,7.476,195.682,0.185,51.6,59.79,33.69,35.63
"2017-05-08 12:50:00",287130,0.712,279.1,18.43,23.64,1044.443,0,862.9922,0,-5.175,3.128,230,8.76,7.512,192.89,0.185,51.66,59.79,33.7,35.63
"2017-05-08 13:00:00",287131,0.989,268.4,17.77,19.3,1027.792,0,863.0007,0,-4.232,3.124,194,8.87,7.478,192.9469,0.188,51.6,59.79,33.69,35.63
"2017-05-08 13:10:00",287132,0.767,267.2,17.78,20.86,997.8218,0,862.9711,0,-5.02,3.13,185,8.97,7.469,187.2493,0.188,51.6,59.73,33.69,35.62
"2017-05-08 13:20:00",287133,0.555,278.4,18.1,21.89,976.8492,0,863.0028,0,-4.101,3.119,198,9.1,7.509,181.8852,0.186,51.6,59.79,33.69,35.63
"2017-05-08 13:30:00",287134,0.581,288.1,18.06,21.98,949.323,0,862.9354,0,-5.134,3.129,200,9.18,7.534,173.5435,0.183,51.6,59.79,33.69,35.63
"2017-05-08 13:40:00",287135,0.569,275.5,17.78,22.44,903.7708,0,862.8048,0,-3.702,3.117,188,9.29,7.543,163.7736,0.181,51.6,59.79,33.69,35.63
"2017-05-08 13:50:00",287136,0.596,265.3,17.89,22.31,926.7512,0,862.7795,0,-4.824,3.126,211,9.4,7.533,165.8078,0.179,51.6,59.79,33.69,35.63
"2017-05-08 14:00:00",287137,0.579,241.5,17.78,22.08,914.3978,0,862.7438,0,-5.364,3.135,205,9.51,7.522,157.7116,0.172,51.49,59.79,33.66,35.63
"2017-05-08 14:10:00",287138,0.474,283.9,17.74,23.53,890.4411,0,862.628,0,-5.138,3.13,205,9.61,7.524,147.2569,0.165,51.55,59.79,33.68,35.63
"2017-05-08 14:20:00",287139,0.655,274.8,17.95,22.41,867.4506,0,862.6954,0,-4.933,3.128,202,9.72,7.502,137.9319,0.159,51.55,59.79,33.68,35.63
"2017-05-08 14:30:00",287140,0.607,270.4,17.52,22.78,831.7683,0,862.7438,0,-4.08,3.123,180,9.79,7.476,126.3147,0.152,51.49,59.73,33.66,35.62
"2017-05-08 14:40:00",287141,0.466,276.6,17.77,23.49,802.7132,0,862.748,0,-4.091,3.121,213,9.92,7.469,111.0523,0.138,51.49,59.73,33.66,35.62
"2017-05-08 14:50:00",287142,0.566,243.7,17.49,24.4,770.108,0,862.7712,0,-4.912,3.132,192,10.01,7.469,92.02789,0.119,51.49,59.73,33.66,35.62
"2017-05-08 15:00:00",287143,0.51,265.6,17.15,26.37,727.212,0,862.8575,0,-3.84,3.123,188,10.09,7.477,70.10533,0.096,51.49,59.73,33.66,35.62
"2017-05-08 15:10:00",287144,0.523,286.8,16.91,26.6,537.0668,0,862.9228,0,-5.101,3.135,186,10.19,7.497,39.8448,0.081,51.49,59.73,33.66,35.62
"2017-05-08 15:20:00",287145,0.768,271.1,16.74,25.36,145.2294,0,862.9333,0,-4.375,3.131,198,10.29,7.555,28.66189,0.211,51.49,59.73,33.66,35.62
"2017-05-08 15:30:00",287146,0.585,255.6,16.66,26.68,108.4388,0,863.007,0,-4.417,3.13,217,10.41,7.563,25.08957,0.231,51.44,59.73,33.65,35.62
"2017-05-08 15:40:00",287147,0.575,261.2,16.31,27.17,98.20393,0,863.0491,0,-4.411,3.133,202,10.46,7.627,20.96038,0.213,51.38,59.73,33.64,35.62
"2017-05-08 15:50:00",287148,0.485,239.3,16.39,27.85,91.43043,0,863.2597,0,-4.447,3.131,200,10.54,7.639,18.64576,0.204,51.44,59.73,33.65,35.62
"2017-05-08 16:00:00",287149,0.531,243,16.31,27,89.0652,0,863.2723,0,-4.961,3.136,195,10.59,7.64,17.05848,0.192,51.38,59.73,33.64,35.62
"2017-05-08 16:10:00",287150,0.418,216,16.43,27.57,86.40138,0,863.2723,0,-4.956,3.139,197,10.69,7.64,16.25916,0.188,51.38,59.73,33.64,35.62
"2017-05-08 16:20:00",287151,0.361,241.8,16.08,27.37,81.21518,0,863.386,0,-4.284,3.132,222,10.75,7.665,14.19836,0.175,51.38,59.73,33.64,35.62
"2017-05-08 16:30:00",287152,0.526,173.2,15.98,27.39,72.34529,0,863.3459,0,-4.249,3.133,214,10.85,7.72,11.8537,0.164,51.33,59.67,33.62,35.6
"2017-05-08 16:40:00",287153,0.473,218.8,15.82,27.67,71.82558,0,863.4091,0,-4.259,3.134,203,10.86,7.763,11.47911,0.16,51.33,59.67,33.62,35.6
"2017-05-08 16:50:00",287154,0.484,232.3,15.76,28.06,64.36996,0,863.5273,0,-4.161,3.133,204,10.94,7.784,10.04737,0.156,51.33,59.67,33.62,35.6
"2017-05-08 17:00:00",287155,0.372,204.8,15.52,28.82,57.51527,0,863.6904,0,-4.281,3.136,202,10.96,7.799,8.342789,0.144,51.33,59.67,33.62,35.6
"2017-05-08 17:10:00",287156,0.429,225,15.19,29.75,55.16296,0,863.7733,0,-3.878,3.133,190,10.97,7.815,7.926232,0.144,51.27,59.67,33.61,35.6
"2017-05-08 17:20:00",287157,0.609,191.5,15.07,31.22,46.42088,0,863.8829,0,-4.094,3.136,188,10.99,7.896,6.490427,0.14,51.27,59.67,33.61,35.6
"2017-05-08 17:30:00",287158,0.735,280.3,14.92,33.99,44.94088,0,864.0717,0,-4.34,3.14,193,10.99,7.911,6.539896,0.145,51.27,59.67,33.61,35.6
"2017-05-08 17:40:00",287159,1.035,291.2,14.32,42.21,38.5248,0,864.091,0,-3.982,3.14,192,11.01,7.902,5.338941,0.139,51.27,59.61,33.61,35.59
"2017-05-08 17:50:00",287160,0.609,5.68,13.91,45.8,31.49149,0,864.1033,0,-3.944,3.141,192,11.06,7.89,4.505498,0.143,51.27,59.67,33.61,35.6
"2017-05-08 18:00:00",287161,0.913,341.4,13.71,47.43,41.29455,0,864.2474,0,-3.899,3.141,205,11.08,7.937,6.934705,0.166,51.27,59.61,33.61,35.59
"2017-05-08 18:10:00",287162,0.783,339.6,13.69,47.91,38.44963,0,864.3535,0,-4.135,3.144,191,11.07,8.03,6.680903,0.173,51.27,59.61,33.61,35.59
"2017-05-08 18:20:00",287163,0.829,331.8,13.56,47.93,27.29576,0,864.3729,0,-4.062,3.144,192,11.03,8.03,4.979446,0.183,51.27,59.61,33.61,35.59
"2017-05-08 18:30:00",287164,1.392,301,13.29,47.63,15.27307,0,864.3734,0,-4.126,3.147,188,11.06,8.03,2.800469,0.18,51.21,59.67,33.6,35.6
"2017-05-08 18:40:00",287165,1.182,299.4,12.91,47.46,2.004445,0,864.3778,0,-4.184,3.149,191,11.07,8.07,0.2917946,0.073,51.21,59.61,33.6,35.59
"2017-05-08 18:50:00",287166,1.231,302,12.67,47.46,0,0,864.4979,0,-4.29,3.151,186,11.04,8.14,0,0,51.21,59.61,33.6,35.59
"2017-05-08 19:00:00",287167,0.748,4.434,12.37,49.25,0,0,864.639,0,-4.201,3.153,201,11.03,8.12,0,0,51.21,59.56,33.6,35.58
"2017-05-08 19:10:00",287168,0.718,0.071,12.07,50.94,0,0,864.8665,0,-4.284,3.155,193,10.99,8.12,0,0,51.21,59.61,33.6,35.59
"2017-05-08 19:20:00",287169,0.65,323.9,11.83,53.01,0,0,865.1192,0,-3.548,3.149,213,10.99,8.12,0,0,51.21,59.61,33.6,35.59
"2017-05-08 19:30:00",287170,1.062,339.3,11.58,55.06,0,0,865.3825,0,-4.291,3.157,209,10.91,8.2,0,0,51.21,59.61,33.6,35.59
"2017-05-08 19:40:00",287171,1.047,330.9,11.39,56.43,0,0,865.4857,0,-4.14,3.156,193,10.9,8.27,0,0,51.21,59.61,33.6,35.59
"2017-05-08 19:50:00",287172,0.948,300.2,11.32,56.25,0,0,865.6374,0,-4.041,3.156,213,10.9,8.23,0,0,51.21,59.56,33.6,35.58
"2017-05-08 20:00:00",287173,1.162,309,11.23,53.31,0,0,865.6416,0,-4.095,3.157,192,10.81,8.22,0,0,51.21,59.56,33.6,35.58
"2017-05-08 20:10:00",287174,0.59,296.6,11.04,53.05,0,0,865.8522,0,-4.458,3.162,186,10.84,8.28,0,0,51.16,59.56,33.58,35.58
"2017-05-08 20:20:00",287175,0.598,322.9,10.97,53.8,0,0,865.8901,0,-4.612,3.164,194,10.76,8.34,0,0,51.21,59.56,33.6,35.58
"2017-05-08 20:30:00",287176,0.599,302.2,10.95,49.55,0,0,866.1302,0,-4.584,3.163,247,10.74,8.38,0,0,51.21,59.56,33.6,35.58
"2017-05-08 20:40:00",287177,0.609,296.5,10.8,48.33,0,0,866.3008,0,-4.534,3.163,220,10.75,8.37,0,0,51.16,59.56,33.58,35.58
"2017-05-08 20:50:00",287178,0.891,300.3,10.92,42,0,0,866.2776,0,-5.118,3.168,192,10.69,8.32,0,0,51.21,59.56,33.6,35.58
"2017-05-08 21:00:00",287179,0.269,62.05,10.74,43.11,0,0,866.225,0,-4.822,3.168,187,10.69,8.29,0,0,51.16,59.5,33.58,35.56
"2017-05-08 21:10:00",287180,0.457,293.9,10.83,40.42,0,0,866.2734,0,-4.307,3.161,223,10.6,8.31,0.01136862,0,51.21,59.5,33.6,35.56
"2017-05-08 21:20:00",287181,0.435,359,10.87,41.35,0,0,866.3956,0,-4.302,3.16,213,10.57,8.38,0.003789541,0,51.21,59.56,33.6,35.58
"2017-05-08 21:30:00",287182,0.604,25.23,10.75,43.54,0,0,866.4146,0,-4.576,3.168,212,10.59,8.43,0.0189477,0,51.16,59.5,33.58,35.56
"2017-05-08 21:40:00",287183,0.626,294.1,10.31,47.34,0,0,866.6041,0,-4.313,3.163,194,10.48,8.46,0,0,51.21,59.5,33.6,35.56
"2017-05-08 21:50:00",287184,0.843,318.1,10.67,40.78,0,0,866.6568,0,-4.952,3.17,192,10.53,8.46,0.01515816,0,51.16,59.5,33.58,35.56
"2017-05-08 22:00:00",287185,0.407,314.5,10.35,43.85,0,0,866.6484,0,-4.492,3.165,192,10.39,8.43,0,0,51.21,59.5,33.6,35.56
"2017-05-08 22:10:00",287186,0.372,235.3,10.64,39.59,0,0,866.6442,0,-4.772,3.167,212,10.42,8.4,0.007579082,0,51.16,59.44,33.58,35.55
"2017-05-08 22:20:00",287187,0.314,253.6,10.38,39.58,0,0,866.6484,0,-4.271,3.165,187,10.35,8.43,0,0,51.16,59.44,33.58,35.55
"2017-05-08 22:30:00",287188,0.203,229.6,10.23,39.06,0,0,866.7094,0,-5.505,3.177,194,10.34,8.51,0,0,51.16,59.44,33.58,35.55
"2017-05-08 22:40:00",287189,0.526,193,10,39.83,0,0,866.8464,0,-5.125,3.173,199,10.34,8.55,0.01136973,0,51.16,59.44,33.58,35.55
"2017-05-08 22:50:00",287190,0.577,225.5,10.13,38.29,0,0,866.9011,0,-5.207,3.174,187,10.27,8.58,0.04168957,0,51.16,59.44,33.58,35.55
"2017-05-08 23:00:00",287191,0.641,173.7,10.13,35.6,0,0,866.9011,0,-4.503,3.166,188,10.32,8.6,0.0189513,0,51.16,59.44,33.58,35.55
"2017-05-08 23:10:00",287192,0.848,179.8,10.23,33.32,0,0,866.9158,0,-4.301,3.163,188,10.2,8.61,0.128873,0,51.16,59.44,33.58,35.55
"2017-05-08 23:20:00",287193,0.465,161.3,10.34,31.8,0,0,866.9011,0,-4.048,3.161,189,10.26,8.62,0.04548584,0,51.21,59.44,33.6,35.55
"2017-05-08 23:30:00",287194,0.529,233.6,10.7,29.15,0,0,866.9011,0,-3.781,3.156,192,10.16,8.61,0.05685625,0,51.16,59.44,33.58,35.55
"2017-05-08 23:40:00",287195,0.366,271.9,11.05,28.13,0,0,866.7874,0,-4.525,3.164,203,10.11,8.58,0.1288738,0,51.16,59.38,33.58,35.54
"2017-05-08 23:50:00",287196,0.679,290.5,10.87,28.15,0,0,866.7958,0,-4.286,3.159,178,10.16,8.56,0.08717964,0,51.16,59.38,33.58,35.54
